Starlink 5984

operational
NORAD ID: 56329 Int'l Des: 2023-058 Owner: SPXS Country: US Constellation: starlink
LEOCIRCULARRETROGRADESSO

关于 Starlink 5984

正在加载描述...

实时位置

正在加载3D地球...

即将过境

高度历史

Altitude vs Time

uPlot chart will show altitude changes over time

两行轨道根数

1 56329U 23058N 25352.24690126 -.00000362 00000-0 -20876-4 0 9990
2 56329 97.6035 350.9600 0001911 83.3507 276.7937 15.05645762145943
Epoch: Dec 18, 2025 • Age: 9 hours

当前状态

高度 554.8 km
速度 7.58 km/s
星下点 -9.90°S, 138.59°W
发射日期 Apr 27, 2023
运行时间 2.6 years
类型 internet

技术详情

分类 Payload
质量 300.00 kg
干质量 260.00 kg
总质量 300.00 kg
长度 0.20 m
直径 2.80 m
跨度 9.00 m
形状 Box + pan
制造商 SPXS
平台类型 Starlink
阶段状态 In Orbit
所有者/国家 SPXS/US

大型星座

Loading constellations...